Temperature
10 10 10 10 10 10 10 10 10 10 10 10 10 10 10 10 10 10 10 10 9 9 9 8 9 9 9 9 9 10 10 10 10 10 10 10 10 10 10 10 10 10 10
9 9 9 9 10 10 9 9 9 9 9 9 9 9 9 9 9 9 9 9 9 9 9 8 8 8 8 9 9 9 9 9 9 9 9 9 9 10 10 10 10 10 10
9 9 9 9 9 9 9 9 9 9 9 9 9 9 9 9 9 9 9 9 9 9 9 8 8 8 8 8 9 9 9 9 9 9 9 9 9 9 9 9 9 9 9
8 8 8 9 9 8 8 8 8 8 8 8 8 8 8 8 8 8 8 8 8 8 8 8 8 8 8 8 8 8 9 9 9 9 9 9 9 9 9 9 9 9 9
8 8 8 8 8 8 8 8 8 8 8 8 8 8 8 8 8 8 8 8 8 8 8 8 8 8 8 8 8 8 8 8 8 9 8 8 8 8 8 8 8 8 8
8 8 8 8 8 8 8 7 7 7 7 7 7 7 7 7 7 7 7 7 7 7 7 8 8 8 8 7 7 7 8 8 8 8 8 8 8 8 8 8 8 8 8
7 7 7 7 7 7 7 7 7 7 7 7 7 6 6 6 6 7 7 7 7 7 7 7 7 7 7 7 7 7 7 7 7 8 8 8 8 8 8 8 8 8 8
7 7 7 6 6 6 6 6 6 6 6 6 6 5 5 6 6 6 6 6 6 6 6 7 7 7 7 7 7 7 7 7 7 7 7 7 7 7 7 7 7 8 8
6 6 6 6 6 6 6 6 6 6 6 6 5 5 5 5 5 5 6 6 6 6 6 6 6 6 6 6 6 6 6 6 6 7 7 7 7 7 7 7 7 7 7
6 6 5 5 5 5 5 5 5 5 5 5 5 5 5 4 4 4 5 5 5 5 5 5 5 6 6 6 6 6 6 6 6 6 6 6 6 6 7 7 7 7 7
5 5 5 5 5 5 5 5 5 4 4 4 4 4 4 4 4 4 4 4 5 5 5 5 5 5 5 5 5 5 5 5 5 5 6 6 6 6 6 6 6 7 7
4 4 4 4 4 4 4 4 4 4 4 4 4 4 4 3 3 3 3 3 3 4 4 4 4 5 5 5 5 5 5 5 5 5 5 5 6 6 6 6 6 6 6
4 4 4 4 4 4 4 4 3 4 4 3 3 3 3 3 3 3 3 2 2 3 3 4 4 4 4 4 4 4 4 4 4 4 5 5 5 5 5 6 6 6 6
3 3 3 3 3 3 3 3 3 3 3 3 3 3 3 3 3 3 3 2 2 2 2 3 3 4 3 3 4 4 4 4 4 4 4 4 5 5 5 5 5 5 5
3 3 3 3 3 3 3 3 3 3 3 2 2 2 2 2 2 2 2 2 2 1 2 2 3 3 3 3 3 3 3 3 3 4 4 4 4 4 4 4 5 5 5
3 3 3 3 3 2 2 2 3 2 2 2 2 2 2 2 2 2 2 2 2 2 1 2 2 2 2 2 3 3 3 3 3 3 3 4 4 4 4 4 4 4 4
3 2 2 2 2 2 2 2 2 2 2 2 2 2 2 2 1 1 1 1 1 1 1 1 2 2 2 2 2 2 3 3 3 3 3 3 3 3 3 3 3 4 4
2 2 2 2 2 2 2 2 2 2 1 1 1 1 1 1 1 1 1 1 1 1 1 1 1 1 1 2 2 2 2 2 2 3 3 3 3 3 3 3 3 3 3
2 2 1 1 1 1 1 1 1 1 1 1 1 1 1 1 1 1 1 1 1 1 1 1 1 1 1 1 1 2 2 2 2 2 2 2 2 2 3 3 3 3 3
1 1 1 1 1 1 1 1 1 1 1 1 1 1 0 0 0 0 0 0 0 0 0 0 0 0 1 1 1 1 1 1 2 2 2 2 2 2 2 2 2 2 2
1 1 1 1 1 1 1 1 1 0 0 0 0 0 0 0 0 -0 -0 0 0 0 0 -0 -0 -0 -0 0 0 0 0 1 1 1 1 1 1 2 2 2 2 2 2
1 1 1 1 0 0 0 0 0 0 0 0 0 0 -0 -0 -0 -0 -0 -0 -0 -0 -0 -0 -1 -1 -1 -0 -0 -0 -0 -0 0 0 1 1 1 1 1 1 1 2 2
1 0 0 0 0 0 -0 -0 -0 -0 -0 -0 -0 -0 -0 -0 -0 -1 -0 -0 -0 -0 -1 -1 -1 -1 -1 -1 -1 -1 -1 -0 -0 0 -0 0 0 1 1 1 1 1 1
0 -0 -0 -0 -0 -0 -1 -1 -1 -1 -1 -1 -1 -1 -1 -1 -1 -1 -1 -1 -1 -1 -1 -1 -1 -1 -1 -1 -1 -1 -1 -1 -0 -0 -0 -1 -0 0 0 0 0 1 1
-0 -1 -1 -1 -1 -1 -1 -1 -1 -1 -1 -1 -1 -1 -1 -1 -1 -1 -1 -1 -1 -1 -1 -1 -2 -2 -1 -1 -1 -1 -1 -1 -1 -1 -1 -1 -1 -1 -0 0 0 0 0
-1 -1 -1 -1 -1 -1 -1 -1 -2 -2 -2 -2 -2 -2 -2 -2 -2 -2 -2 -2 -2 -2 -2 -2 -1 -1 -1 -1 -1 -1 -1 -1 -1 -2 -1 -2 -2 -2 -2 -1 -1 -0 -0
Wind_Speed
1 1 1 1 1 1 1 2 2 3 3 3 2 1 1 1 2 2 3 4 4 4 4 4 5 6 6 6 6 6 6 6 6 6 6 6 5 6 6 5 5 6 6
2 1 1 1 1 1 1 1 2 2 2 2 2 2 2 2 2 2 2 3 3 3 4 5 6 7 7 6 6 6 7 7 7 6 6 6 6 6 6 6 6 6 7
2 2 1 1 1 2 1 1 2 2 2 2 2 2 2 2 2 1 2 2 2 3 4 5 6 7 8 7 7 7 7 7 7 7 7 7 7 6 6 7 7 7 8
2 2 1 2 2 1 0 1 1 1 2 2 2 2 2 1 1 1 1 1 1 1 3 5 6 8 8 8 7 7 7 7 7 7 8 7 7 7 7 7 8 8 8
2 2 1 2 1 1 1 1 1 1 2 2 2 2 2 2 2 1 1 1 1 1 2 4 6 7 8 8 7 7 7 8 8 8 8 8 8 7 8 8 8 8 8
1 2 1 1 1 1 1 1 1 1 1 2 2 2 2 2 2 2 2 1 1 1 2 2 3 5 6 7 7 8 8 7 8 8 8 9 9 8 8 8 8 8 8
1 1 1 1 1 1 2 2 2 1 1 1 0 2 3 2 2 2 2 1 1 1 2 2 2 3 4 5 6 7 8 8 8 8 9 9 9 9 9 8 8 8 8
2 1 1 1 1 1 1 2 1 1 1 0 1 0 2 3 2 2 2 1 2 1 2 2 2 2 3 3 4 6 7 8 9 9 10 10 9 9 9 9 9 8 8
2 2 2 2 1 1 2 3 2 2 2 1 1 2 2 3 3 2 2 1 1 1 2 2 2 3 3 3 3 5 7 8 9 9 9 9 9 9 9 8 8 8 8
3 2 2 2 2 2 2 3 2 2 2 2 1 1 2 2 2 2 3 2 2 2 3 3 3 4 3 3 4 5 7 8 8 9 9 9 10 10 9 9 8 8 8
2 2 2 2 2 2 3 3 3 3 3 3 2 1 1 1 2 2 3 3 3 3 3 3 3 3 3 3 3 4 6 7 8 8 9 10 10 10 9 8 8 8 8
2 2 2 2 3 2 3 3 3 3 3 3 3 2 2 2 2 2 3 4 4 4 4 3 3 3 3 3 4 5 6 6 8 9 9 9 10 9 9 8 8 7 7
2 3 2 2 3 3 3 2 3 3 3 3 3 3 3 3 2 2 3 3 3 4 3 3 3 2 2 2 4 5 5 7 8 8 9 9 9 8 8 8 8 7 7
3 3 3 3 3 3 3 2 3 3 3 3 4 3 3 3 3 3 3 2 3 3 3 4 2 2 2 3 5 6 5 7 8 8 8 9 9 8 7 7 7 7 8
2 3 3 3 3 3 3 2 3 3 3 3 4 4 3 3 3 3 2 3 3 3 4 3 2 2 3 4 5 4 4 6 8 8 8 8 8 7 6 6 6 7 7
2 3 3 3 3 3 2 2 2 3 3 3 3 4 3 3 3 3 3 3 3 4 5 3 3 3 3 5 6 4 4 7 7 8 8 8 7 6 6 6 6 6 6
3 3 3 3 3 3 2 2 2 3 4 4 3 3 4 4 4 3 3 3 3 3 5 4 3 3 3 4 4 4 4 4 5 7 8 7 7 6 5 5 5 6 6
3 3 3 3 3 3 2 3 3 3 4 4 4 4 5 4 5 4 3 4 4 4 4 5 4 3 3 3 3 4 3 4 4 6 7 7 6 5 5 5 5 5 6
3 3 3 3 3 3 3 3 4 4 4 4 4 5 5 5 5 4 4 4 4 4 3 4 4 3 3 2 3 3 3 3 3 4 6 6 6 5 5 5 5 6 6
3 3 3 3 3 3 3 3 3 4 4 4 4 4 5 6 6 6 5 5 4 3 3 3 3 3 2 3 2 3 3 2 3 3 5 5 5 5 5 6 6 6 6
3 3 3 3 3 3 3 3 3 3 3 3 3 4 4 5 5 4 4 4 4 3 3 3 3 3 2 2 2 2 3 3 3 2 2 3 3 3 4 6 6 6 6
3 2 3 3 3 3 4 4 3 3 3 3 4 4 4 4 4 5 5 4 3 4 3 3 3 3 3 2 2 3 2 2 3 1 1 3 2 3 3 3 6 8 7
3 3 3 3 4 4 5 5 4 3 3 3 4 3 3 2 3 3 3 3 3 5 4 3 4 4 4 3 3 3 2 2 3 2 2 3 2 3 3 5 7 7 7
3 3 3 3 3 4 5 5 4 3 3 3 3 3 3 3 3 2 1 1 2 3 4 3 4 4 4 3 3 4 3 2 2 2 1 2 2 2 4 4 6 6 6
3 3 3 3 3 4 4 4 3 2 2 3 3 3 3 3 3 2 1 1 2 2 3 4 4 4 4 5 3 1 1 1 2 2 1 0 1 2 3 3 4 6 6
3 3 3 3 3 4 4 4 3 2 2 2 3 3 3 3 3 2 2 2 3 2 2 2 2 3 3 3 4 2 3 2 1 2 1 0 1 1 2 2 3 4 4
Wind_Direction
203 221 233 253 291 314 328 328 330 321 320 322 312 307 306 304 291 298 302 299 293 294 296 296 295 296 295 289 288 292 283 285 289 286 291 284 277 280 283 287 294 293 291
201 212 237 262 278 270 275 280 292 299 299 306 298 293 290 290 287 283 295 304 297 293 297 298 298 294 292 290 292 294 294 285 283 282 283 287 285 279 278 283 285 285 286
197 199 213 245 271 264 268 295 307 314 303 300 291 289 294 290 290 283 282 295 305 297 298 302 299 298 297 293 294 293 301 301 291 282 278 281 286 285 282 283 282 282 282
189 180 208 248 261 258 263 250 275 298 299 290 284 285 291 291 291 273 269 272 287 303 304 302 303 298 300 294 297 294 295 298 298 296 289 282 283 286 283 285 287 283 281
184 175 217 254 255 264 265 265 304 269 281 286 274 282 286 280 278 276 256 251 255 280 307 305 302 299 300 296 297 296 296 295 294 296 297 293 285 286 282 283 286 287 283
186 177 216 250 247 264 279 273 271 278 258 271 294 315 303 288 276 263 256 249 245 294 311 312 315 303 303 302 303 303 305 303 301 301 300 295 288 285 283 282 283 286 286
191 189 221 257 235 239 255 257 257 266 291 298 32 332 318 299 278 272 256 244 261 288 309 313 323 324 316 307 303 304 305 304 304 306 307 298 294 287 285 282 282 285 284
204 214 207 225 227 246 280 274 249 233 267 265 170 159 317 318 306 285 265 245 265 296 297 301 310 321 319 320 312 308 304 306 305 305 304 303 293 290 285 283 281 283 285
224 229 231 236 231 212 235 254 234 213 223 251 208 175 188 248 296 294 273 277 281 292 291 302 297 306 304 308 305 302 306 304 301 304 304 307 302 300 294 291 289 288 288
238 238 241 241 242 226 227 243 237 225 204 224 250 241 229 208 216 287 291 285 300 292 287 294 296 293 293 294 300 307 311 308 306 304 306 310 305 297 295 291 287 288 291
250 246 243 241 241 231 228 229 220 213 207 206 212 232 254 265 240 229 270 293 306 286 285 281 277 275 286 291 294 303 316 312 312 311 309 309 306 296 294 297 295 290 290
264 256 252 247 244 238 233 221 212 206 204 206 210 212 221 228 231 225 242 263 283 289 293 278 272 257 273 288 300 314 318 317 315 316 315 310 309 299 299 301 303 293 290
263 257 264 256 252 246 240 220 212 218 208 206 210 218 226 245 238 231 230 256 277 292 289 278 268 250 280 294 299 311 313 313 314 316 317 315 311 300 299 304 307 305 298
241 250 254 251 252 247 246 228 218 221 215 213 222 218 225 249 246 231 225 230 275 287 275 269 280 253 276 299 305 312 307 308 310 314 316 314 314 311 307 306 310 309 307
243 244 249 250 248 249 240 224 218 222 222 223 227 225 228 242 237 242 235 215 220 264 277 257 257 282 310 313 310 311 308 307 310 313 314 310 312 312 311 312 309 307 310
243 241 247 248 243 246 243 227 240 226 221 230 229 228 236 244 234 234 233 237 228 234 258 252 268 291 305 311 311 309 301 311 308 307 308 311 312 307 307 310 311 311 312
235 232 236 240 238 239 239 235 242 234 226 234 240 236 244 247 240 237 237 239 242 239 254 275 272 282 288 291 306 300 296 293 291 302 307 310 310 313 314 313 310 311 312
234 234 232 236 240 238 233 233 242 243 233 230 235 238 246 247 237 236 235 240 247 245 240 262 275 275 276 277 290 291 304 299 288 297 305 309 315 323 322 319 315 316 318
236 239 235 236 245 245 239 232 235 242 237 237 232 233 240 243 238 238 236 236 241 245 237 244 267 270 274 276 296 298 298 295 297 303 313 316 321 321 321 324 323 320 318
223 230 237 239 242 246 246 241 242 244 249 246 240 239 238 239 233 230 232 231 232 235 237 243 259 270 273 270 277 288 305 311 303 312 314 313 316 319 322 327 327 325 321
228 228 235 248 251 249 246 245 243 241 250 259 256 250 249 250 240 237 238 224 217 223 231 242 254 269 271 266 274 279 284 303 303 291 306 304 309 311 311 317 325 323 319
231 229 234 238 250 258 263 253 238 239 247 251 258 262 258 247 249 253 256 250 229 222 225 237 247 250 259 262 273 279 282 300 300 301 317 305 301 297 299 301 309 312 315
224 229 236 236 246 258 261 254 250 246 247 248 248 256 264 258 253 241 261 279 266 257 247 233 231 245 251 249 251 269 264 270 270 280 316 303 309 300 300 304 309 311 314
223 228 238 244 254 261 264 264 260 254 255 256 250 244 245 252 246 227 212 264 278 268 264 251 238 249 254 248 239 250 251 279 289 287 270 276 299 300 310 309 309 308 312
234 235 234 235 247 265 267 265 260 253 254 262 265 248 231 229 254 256 213 242 280 282 287 279 278 281 288 286 278 274 264 263 298 303 293 217 282 313 312 304 310 315 315
232 231 238 235 241 257 267 259 247 237 254 263 261 244 234 236 247 254 218 216 248 273 285 300 295 294 283 276 276 239 222 229 258 276 261 237 249 330 322 303 313 329 328
Height
1503 1503 1503 1503 1503 1502 1502 1502 1501 1501 1501 1501 1500 1500 1499 1499 1499 1499 1499 1499 1499 1498 1498 1499 1499 1499 1498 1498 1498 1497 1497 1496 1496 1495 1495 1494 1494 1494 1493 1493 1492 1492 1491
1500 1500 1500 1500 1500 1499 1499 1499 1499 1498 1498 1498 1497 1497 1496 1496 1496 1496 1496 1496 1495 1495 1495 1495 1495 1495 1495 1495 1494 1494 1493 1493 1492 1492 1492 1491 1491 1490 1490 1490 1489 1488 1488
1497 1497 1497 1497 1497 1496 1496 1496 1495 1495 1495 1494 1494 1494 1493 1493 1493 1493 1493 1492 1492 1492 1492 1491 1491 1491 1491 1491 1491 1490 1490 1489 1489 1488 1488 1488 1487 1487 1486 1486 1486 1485 1484
1494 1494 1494 1494 1493 1493 1493 1492 1492 1491 1491 1491 1490 1490 1490 1490 1489 1489 1489 1489 1489 1489 1488 1488 1487 1487 1487 1487 1487 1487 1486 1486 1485 1485 1484 1484 1483 1483 1483 1482 1482 1481 1481
1491 1491 1490 1490 1490 1490 1489 1489 1489 1488 1488 1487 1487 1487 1487 1486 1486 1486 1486 1486 1486 1485 1485 1484 1484 1483 1483 1483 1483 1483 1483 1482 1482 1481 1481 1480 1480 1479 1479 1479 1478 1478 1477
1487 1487 1487 1486 1486 1486 1486 1485 1485 1485 1484 1484 1484 1483 1483 1483 1482 1482 1482 1482 1482 1482 1482 1481 1480 1480 1480 1479 1479 1479 1479 1478 1478 1477 1477 1476 1476 1475 1475 1475 1474 1474 1473
1484 1484 1483 1483 1482 1482 1482 1482 1482 1481 1481 1481 1480 1480 1479 1479 1479 1479 1479 1479 1479 1479 1478 1478 1477 1477 1476 1476 1476 1475 1475 1474 1474 1473 1473 1472 1471 1471 1471 1470 1470 1470 1469
1480 1480 1479 1479 1478 1478 1478 1478 1478 1477 1477 1477 1477 1477 1476 1477 1475 1476 1476 1475 1475 1476 1475 1475 1474 1473 1473 1473 1472 1471 1471 1470 1470 1470 1469 1468 1467 1467 1467 1466 1466 1465 1465
1476 1476 1476 1475 1475 1474 1474 1474 1474 1473 1473 1474 1474 1475 1474 1473 1472 1472 1472 1472 1472 1472 1472 1471 1470 1470 1470 1469 1468 1468 1467 1466 1466 1466 1465 1464 1463 1463 1462 1462 1461 1461 1461
1472 1472 1472 1471 1471 1470 1470 1470 1470 1469 1470 1469 1470 1471 1472 1471 1471 1469 1469 1469 1469 1469 1468 1468 1467 1467 1466 1466 1465 1464 1463 1463 1462 1462 1461 1460 1459 1459 1458 1457 1457 1457 1457
1468 1468 1468 1467 1467 1466 1466 1466 1466 1466 1466 1466 1467 1467 1468 1468 1468 1467 1465 1465 1465 1465 1465 1464 1464 1463 1462 1462 1461 1460 1460 1459 1458 1458 1457 1456 1455 1454 1454 1453 1453 1453 1452
1464 1464 1464 1463 1463 1462 1462 1461 1462 1462 1462 1462 1463 1464 1464 1464 1464 1464 1462 1461 1461 1460 1460 1460 1460 1459 1458 1458 1457 1456 1456 1455 1454 1453 1453 1451 1450 1450 1450 1449 1449 1448 1448
1460 1460 1460 1459 1458 1458 1458 1457 1458 1458 1459 1459 1460 1460 1461 1461 1461 1460 1460 1458 1457 1456 1456 1456 1456 1456 1455 1454 1453 1453 1452 1451 1450 1449 1449 1447 1447 1446 1446 1445 1445 1444 1444
1457 1456 1456 1455 1455 1454 1454 1454 1454 1454 1455 1455 1456 1456 1457 1457 1457 1457 1457 1456 1454 1453 1453 1452 1452 1452 1452 1451 1450 1449 1448 1447 1446 1446 1445 1444 1443 1442 1442 1441 1441 1440 1440
1453 1453 1453 1452 1451 1451 1450 1450 1450 1451 1451 1452 1452 1452 1452 1453 1453 1453 1453 1453 1453 1451 1449 1448 1448 1448 1448 1447 1446 1445 1444 1444 1443 1442 1441 1440 1439 1439 1438 1438 1437 1436 1436
1450 1450 1449 1448 1448 1447 1447 1447 1447 1447 1448 1448 1448 1448 1448 1449 1449 1449 1449 1449 1449 1448 1446 1444 1444 1444 1444 1443 1443 1442 1441 1440 1439 1438 1437 1437 1436 1435 1435 1434 1433 1433 1432
1446 1446 1446 1445 1445 1444 1444 1443 1443 1443 1444 1444 1444 1444 1444 1445 1445 1445 1445 1445 1445 1445 1442 1441 1441 1441 1440 1440 1439 1438 1437 1436 1435 1435 1434 1433 1433 1432 1431 1431 1430 1429 1428
1443 1443 1443 1442 1441 1441 1440 1440 1440 1439 1439 1440 1440 1440 1440 1441 1441 1441 1441 1441 1441 1440 1439 1437 1437 1437 1437 1436 1435 1434 1433 1433 1432 1431 1431 1430 1429 1428 1428 1427 1426 1426 1425
1440 1440 1439 1438 1438 1437 1437 1437 1436 1436 1436 1436 1436 1436 1436 1436 1436 1437 1437 1437 1437 1437 1436 1434 1433 1433 1433 1432 1431 1431 1430 1429 1429 1428 1428 1427 1426 1425 1425 1424 1423 1422 1421
1436 1436 1436 1435 1435 1434 1433 1433 1433 1432 1432 1432 1432 1432 1432 1432 1432 1433 1433 1433 1433 1432 1431 1431 1429 1429 1429 1429 1428 1427 1426 1426 1426 1425 1425 1424 1423 1422 1422 1421 1420 1419 1418
1433 1433 1432 1432 1432 1431 1430 1430 1429 1429 1429 1429 1429 1429 1429 1429 1429 1429 1429 1429 1429 1428 1427 1427 1426 1425 1425 1425 1425 1424 1424 1422 1422 1422 1421 1421 1420 1419 1418 1417 1416 1415 1414
1429 1429 1429 1428 1428 1428 1428 1427 1427 1426 1426 1425 1425 1425 1425 1425 1425 1426 1425 1425 1425 1424 1423 1423 1422 1422 1422 1422 1422 1422 1421 1419 1418 1419 1418 1417 1417 1415 1415 1414 1413 1412 1411
1425 1425 1425 1425 1425 1425 1425 1424 1424 1423 1422 1422 1422 1421 1421 1421 1421 1421 1421 1421 1421 1421 1421 1421 1419 1419 1419 1419 1419 1419 1418 1417 1416 1416 1415 1412 1413 1412 1412 1411 1410 1409 1407
1421 1421 1421 1421 1421 1421 1421 1421 1420 1420 1419 1419 1418 1418 1418 1418 1418 1418 1417 1417 1417 1417 1417 1417 1417 1416 1417 1417 1417 1417 1416 1414 1413 1413 1413 1410 1409 1408 1407 1407 1406 1405 1404
1417 1417 1418 1418 1418 1417 1418 1417 1417 1416 1416 1415 1415 1415 1415 1415 1415 1415 1414 1413 1413 1413 1414 1414 1414 1413 1414 1414 1414 1413 1412 1411 1409 1409 1410 1408 1406 1405 1403 1402 1402 1401 1400
1414 1414 1414 1414 1414 1414 1414 1414 1414 1413 1412 1412 1412 1412 1412 1412 1412 1412 1411 1410 1410 1409 1410 1410 1410 1410 1411 1411 1411 1411 1410 1408 1407 1406 1406 1406 1404 1403 1400 1399 1398 1398 1397